Other Surface Observations
Issued by NWS

Home | Current Version | Previous Version | Text Only | Print | Product List | Glossary On
Versions: 1 2 3 4 5 6 7 8 9 10 11 12 13 14 15 16 17 18 19 20 21 22 23 24 25 26 27 28 29 30 31 32 33 34 35 36 37 38 39 40 41 42 43 44 45 46 47 48 49 50
000
SXUS52 KTAE 290605
OSOTAE
OSOTAE
North Florida/South Alabama/Southwest Georgia Weather Roundup
National Weather Service Tallahassee Florida
200 AM EDT FRI MAY 29 2015

Note: "fair" indicates few or no clouds below 12,000 feet with no
significant weather and/or obstructions to visibility.

!FLZ017-115-028-034-025-290700
...North Florida...

CITY           SKY/WX    TMP DP  RH WIND       PRES   REMARKS
TALLAHASSEE    PTCLDY    75  70  84 NE6       30.12F
APALACHICOLA   CLEAR     74  69  85 NE7       30.10F
PERRY          CLEAR     72  65  77 E6        30.13F
CROSS CITY       N/A     67  63  87 CALM      30.12F
JACKSONVILLE   PTCLDY    66  63  90 CALM      30.14F
$$

!FLZ112-006-005-002-011-290700
...Florida Panhandle...

CITY           SKY/WX    TMP DP  RH WIND       PRES   REMARKS
MARIANNA       LGT RAIN  70  70 100 E6        30.12F
BONIFAY        FAIR      68  67  96 CALM      30.11F FOG
PANAMA CITY NW MOCLDY    70  69  97 N5        30.10F FOG
TYNDALL AFB    CLEAR     71  70  96 NE5       30.10F
TYND DRONE APT FAIR      70  69  99 NE2       30.10F
DE FUNIAK SPR  FAIR      68  68 100 MISG      30.11F
EGLIN AFB      PTCLDY    72  69  89 NE3       30.09F
DESTIN         CLEAR     74  72  93 NE6       30.10F
HURLBURT       NOT AVBL
CRESTVIEW      FOG       67  66  97 CALM      30.12F VSB 1/2
PENSACOLA      PTCLDY    72  71  97 NE6       30.09F
$$

!ALZ063-066-290700
...South Alabama...

CITY           SKY/WX    TMP DP  RH WIND       PRES   REMARKS
DOTHAN         CLEAR     69  67  93 NE3       30.15F
OZARK CAIRNS   CLEAR     68  67  99 NE5       30.11F
FT RUCKER HELI CLEAR     68  66  93 CALM      30.11F FOG
RUCKER HELI 3  FAIR      67  67  99 E2        30.13F FOG
RUCKER HELI 2  FAIR      69  69 100 NE5       30.11F
FLORALA APT    FOG       68  67  96 CALM      30.13F VSB 1/2
ANDALUSIA      CLOUDY    72  67  84 CALM      30.11F HAZE
TROY           CLOUDY    68  67  96 CALM      30.12F
EUFALA         FAIR      70  68  93 NE3       30.11F
MOBILE         CLEAR     73  72  96 SE8       30.07F
$$

!GAZ120>161-290700
...Southwest and South Central Georgia...

CITY           SKY/WX    TMP DP  RH WIND       PRES   REMARKS
THOMASVILLE    FAIR      72  63  73 SE3       30.15F
BAINBRIDGE     MOCLDY    73  72  94 CALM      30.13F
MOODY AFB      PTCLDY    66  59  78 E5        30.13F
VALDOSTA       CLEAR     66  60  81 CALM      30.14F
MOULTRIE       CLEAR     72  61  68 CALM      30.16F
BLAKELY        PTCLDY    70  70 100 CALM      30.13F
ALBANY         PTCLDY    71  67  87 SE3       30.15F
TIFTON         FAIR      68  58  69 CALM      30.15F
FITZGERALD     FAIR      69  61  76 CALM      30.18F
CORDELE        FAIR      75  63  66 S6        30.15F
AMERICUS       CLOUDY    70  64  83 CALM      30.16F
HOMERVILLE     FAIR      63  61  94 CALM      30.16F
$$

!GMZ750-755-770-775-290700
...Coastal and Buoy Obs...

STATION/POSITION TIME  TEMP    WIND        PRES    VSBY  WAVE
                       AIR SEA DIR/SP/G                  HT/PER
                 (UTC) (F)     (DEG/KT/KT) (MB)    (MI)  (FT/S)
KEATON BEACH     0600   72      80/  7/  8 1020.0F
CEDAR KEY        0500   77     100/ 17/ 19 1020.8F
C TOWER          0600   77      40/ 15/ 16 1018.7F
APALACHICOLA BUO 0550   80 81   30/ 14/ 16 1018.7F         2/ 6
PANAMA CITY BUOY 0450   79 81   90/  6/  8 1019.6          3/ 6
MOBILE BUOY      0550   78 80  120/ 10/ 12 1018.2F         2/ 4
ORANGE BCH AL BU 0550   78 80  110/ 10/ 12 1017.7F         3/ 8
$$



USA.gov is the U.S. government's official web portal to all federal, state and local government web resources and services.